Location: Newark
(49.9833°N, 3.7472°E)
Time: 23:57:06
(UTC+00:00)

ISS - Visible Passes

Search period start: 21 September 2019 00:00
Search period end: 01 October 2019 00:00
Orbit: 411 x 421 km, 51.6° (Epoch: 22 September)

Date Brightness Start Highest point End Pass type
(mag) Time Alt. Az. Time Alt. Az. Time Alt. Az.
21 Sep -2.3 18:35:57 10° SSW 18:38:30 20° SE 18:40:15 14° ESE visible
21 Sep -2.0 20:11:33 10° WSW 20:13:11 27° WSW 20:13:11 27° WSW visible
22 Sep -3.7 19:23:09 10° SW 19:26:25 58° SSE 19:26:55 51° ESE visible
23 Sep -3.2 18:34:52 10° SW 18:38:00 41° SSE 18:40:31 15° E visible
23 Sep -2.2 20:11:20 10° W 20:13:24 35° W 20:13:24 35° W visible
24 Sep -3.9 19:22:48 10° WSW 19:26:09 85° N 19:26:54 50° ENE visible
24 Sep -0.4 20:59:42 10° WNW 20:59:48 11° WNW 20:59:48 11° WNW visible
25 Sep -3.8 18:34:19 10° WSW 18:37:38 76° SSE 18:40:19 15° ENE visible
25 Sep -2.1 20:11:10 10° W 20:13:12 33° WNW 20:13:12 33° WNW visible
26 Sep -3.6 19:22:35 10° W 19:25:53 65° N 19:26:33 50° NE visible
27 Sep -3.7 18:34:00 10° W 18:37:20 73° N 18:39:51 16° ENE visible
27 Sep -1.8 20:10:54 10° WNW 20:12:44 30° WNW 20:12:44 30° WNW visible
28 Sep -3.7 19:22:20 10° W 19:25:39 64° N 19:26:00 58° NE visible
29 Sep -3.5 18:33:44 10° W 18:37:03 63° N 18:39:15 19° ENE visible
29 Sep -1.6 20:10:33 10° WNW 20:12:08 26° WNW 20:12:08 26° WNW visible
30 Sep -3.9 19:21:59 10° WNW 19:25:19 81° NNE 19:25:23 80° NE visible
